Temperature
16 16 16 17 16 16 17 17 17 17 18 18 17 17 17 17 16 16 16 16 16 16 16 16 16 16 15 15 15 15 15 15 15 14 14 14 14 14
16 16 16 16 16 16 16 16 16 17 17 17 17 17 16 16 16 16 16 16 16 16 16 16 16 15 15 15 15 15 15 15 14 14 14 14 14 14
16 16 16 16 16 16 16 16 16 16 16 16 16 16 16 16 16 15 15 15 15 16 16 15 15 15 15 15 15 15 14 14 14 14 14 14 13 13
16 16 16 16 16 16 15 15 16 15 15 15 16 16 15 15 15 15 15 15 15 15 15 15 15 15 15 14 14 14 14 14 14 14 13 13 13 13
15 15 15 15 15 15 15 15 15 15 15 15 15 15 15 15 15 14 14 14 14 14 14 14 14 14 14 14 14 14 14 13 13 13 13 13 12 12
15 15 15 15 15 15 15 14 14 14 14 14 14 14 14 14 14 14 14 14 14 14 13 13 13 13 13 13 13 13 13 13 12 12 12 12 12 12
15 15 14 14 14 14 14 14 14 14 14 14 14 14 14 14 14 13 13 13 13 13 13 12 12 12 12 12 12 12 12 12 11 11 11 11 11 11
14 14 14 14 14 14 14 14 14 13 13 13 13 13 13 13 13 13 12 12 12 12 12 11 11 11 11 11 11 11 11 10 10 10 10 10 10 10
14 14 13 13 13 13 13 13 13 13 13 12 12 12 12 12 12 12 11 11 11 11 11 11 10 10 10 10 10 10 10 9 9 9 9 9 9 9
13 13 13 13 13 13 13 12 12 12 12 12 12 12 11 11 11 11 11 11 11 10 10 10 10 9 9 9 9 9 9 8 8 8 8 8 8 8
13 13 13 13 12 12 12 12 12 11 11 11 11 11 11 11 11 11 11 11 10 10 9 9 9 9 9 8 8 8 8 8 8 8 8 7 7 7
12 12 12 12 12 12 11 11 11 10 10 10 10 10 10 10 10 10 10 10 10 9 9 9 9 9 8 8 8 7 7 7 7 7 7 7 7 7
11 11 11 11 11 11 11 10 10 10 9 10 10 9 9 9 9 9 9 8 8 8 8 8 8 8 8 8 7 7 7 7 7 6 6 6 6 6
10 10 10 10 10 10 10 10 9 9 9 9 9 9 8 8 8 8 7 7 7 7 7 7 7 7 7 8 7 7 7 6 6 6 6 6 6 6
10 10 10 9 9 9 9 9 8 8 8 8 8 7 7 7 7 7 7 7 7 6 6 6 6 6 7 7 7 7 6 6 6 6 6 6 6 5
9 9 9 9 8 8 8 8 8 7 7 7 7 7 7 7 6 6 6 7 7 6 6 6 6 6 6 6 6 6 6 6 6 6 5 5 5 5
8 8 8 8 8 7 7 7 7 7 7 7 7 7 6 6 6 6 6 6 7 6 6 6 6 6 5 6 6 6 6 6 5 5 5 5 5 5
8 8 8 8 7 7 7 7 6 6 6 6 6 6 6 6 6 6 6 6 6 6 6 6 6 6 6 6 5 5 5 5 5 5 5 5 5 5
8 8 7 7 7 7 6 6 6 6 5 6 6 6 6 6 6 6 6 6 6 6 6 5 5 6 6 6 5 4 4 4 5 5 5 5 5 4
7 7 7 6 6 6 6 6 5 5 5 5 5 5 5 5 6 6 5 5 5 5 5 5 5 5 5 5 5 5 4 4 4 4 4 4 4 4
7 6 6 6 6 5 5 5 5 5 5 5 5 5 5 5 5 5 5 5 5 5 5 5 4 4 4 4 5 5 4 4 4 3 3 4 4 4
6 6 6 5 5 5 5 5 5 5 5 5 4 4 4 5 5 5 5 5 5 5 5 5 4 4 5 5 5 5 5 4 4 4 3 3 3 3
6 5 5 5 5 5 5 5 5 5 4 4 4 4 4 4 4 5 5 5 5 5 5 5 5 5 5 5 5 5 5 4 5 4 4 4 3 3
Wind_Speed
7 7 7 6 6 6 6 7 7 7 6 4 4 2 3 3 2 5 5 5 8 9 9 10 10 10 11 12 12 12 12 12 12 12 11 11 10 10
6 6 6 7 6 6 7 6 7 7 7 5 3 3 2 3 1 2 1 3 3 4 6 7 7 7 8 9 10 11 11 11 10 10 10 9 9 9
6 7 7 7 6 6 6 7 7 7 8 7 4 2 2 3 2 2 2 1 1 4 4 3 3 4 5 6 7 7 8 8 8 9 8 8 7 7
6 6 6 5 6 6 6 7 7 7 7 8 5 3 3 3 2 2 2 2 1 5 5 3 3 2 2 3 4 5 6 6 7 7 7 6 6 6
5 5 5 5 6 5 6 6 5 6 5 6 6 3 3 3 2 2 2 1 1 4 6 6 5 5 4 4 2 2 3 4 4 5 4 4 4 4
4 3 3 4 4 5 5 5 5 5 4 4 5 4 3 2 2 3 2 1 1 1 4 5 7 8 7 6 5 4 4 3 3 3 3 2 2 1
1 1 1 2 3 2 2 2 3 3 3 3 3 2 2 2 2 3 2 1 1 1 0 1 3 4 5 5 5 5 6 5 5 4 3 3 3 2
0 1 0 1 3 3 4 5 4 2 3 2 2 2 2 2 2 2 2 2 1 1 0 1 2 2 4 6 7 7 7 7 7 6 5 4 4 3
1 1 1 2 1 2 3 4 6 7 4 2 2 2 3 3 2 1 1 1 1 1 0 1 2 2 4 7 9 8 8 7 7 6 5 4 3 3
3 2 2 2 3 1 3 5 6 6 6 4 3 4 4 4 3 2 0 1 1 2 2 1 1 1 3 5 7 7 6 6 5 4 3 2 1 1
4 5 3 3 5 3 5 6 6 5 10 13 12 11 13 12 8 2 1 0 1 2 3 1 0 0 1 2 4 5 5 4 4 3 2 1 1 3
4 5 8 6 7 5 5 5 6 5 5 7 8 9 10 12 12 7 4 3 2 2 4 3 1 1 0 1 2 2 3 4 4 3 2 0 3 4
4 5 6 9 10 9 7 6 6 5 6 7 7 7 7 7 8 9 8 5 4 3 3 3 2 2 2 0 1 1 2 2 1 1 3 2 1 3
5 6 7 10 12 11 9 8 6 4 5 6 6 6 6 6 6 8 9 9 7 5 5 4 3 3 3 2 1 1 1 2 3 3 3 1 3 3
7 10 9 8 9 10 10 7 5 5 6 6 6 6 5 5 4 4 5 5 6 6 6 6 4 3 3 2 2 3 2 2 3 4 4 4 4 3
7 9 9 9 8 8 7 6 7 6 5 5 5 4 4 4 4 4 4 3 3 4 5 5 5 4 3 3 3 3 3 3 4 5 5 5 4 3
6 6 6 6 7 7 7 6 6 6 6 5 5 4 4 4 4 4 4 3 3 4 4 4 4 3 3 4 3 4 4 4 4 5 5 4 3 4
5 7 7 7 7 6 6 6 6 6 5 5 5 5 4 4 4 4 4 4 4 4 4 4 3 2 0 3 5 5 4 5 5 4 5 5 4 3
6 7 7 6 6 6 6 6 6 6 5 5 5 5 5 4 5 5 5 5 5 5 5 5 5 5 4 3 2 3 5 5 6 5 5 5 5 4
7 7 7 6 6 6 6 6 6 5 5 5 5 5 5 5 5 5 5 6 5 5 4 5 6 6 6 6 5 3 1 5 6 6 6 5 4 3
7 7 6 6 6 6 5 5 5 5 5 5 5 5 5 5 5 5 5 4 4 4 5 5 5 4 5 5 4 3 2 1 2 5 7 7 6 5
6 6 6 5 5 4 4 4 4 4 4 4 5 4 4 4 4 5 5 4 4 5 5 4 4 4 4 5 6 5 5 4 4 8 6 4 6 7
5 5 4 4 4 3 3 4 4 4 4 4 3 3 4 3 4 4 4 4 5 5 5 5 5 4 5 5 6 6 7 7 5 4 3 6 7 9
Wind_Direction
242 237 242 248 251 258 257 260 267 272 266 245 246 246 259 257 281 252 249 207 214 227 232 235 239 241 241 240 239 239 238 237 236 235 235 237 239 242
249 254 252 253 253 251 253 255 259 264 272 277 259 270 287 276 207 252 251 129 166 206 221 227 232 236 239 239 238 235 233 232 231 233 235 236 239 243
244 245 247 257 261 259 254 253 254 255 259 267 259 253 246 273 275 250 248 235 120 146 174 199 220 229 230 230 230 228 226 222 222 226 229 232 236 241
246 251 257 255 253 260 261 257 256 256 257 263 266 256 238 246 250 258 268 255 88 107 119 123 128 142 168 202 214 214 214 214 214 215 219 224 232 239
250 253 262 266 263 261 261 262 262 257 254 260 267 271 265 261 247 235 238 303 272 122 119 108 104 101 95 94 110 157 185 195 196 199 206 212 223 237
248 259 277 278 277 274 265 267 269 268 258 258 265 263 266 273 269 261 241 221 266 63 80 94 101 97 89 85 83 85 101 117 139 156 156 150 147 142
250 302 1 35 17 342 298 294 281 264 255 252 264 277 284 287 274 275 278 284 0 341 81 104 108 92 88 84 77 79 88 92 93 94 102 111 109 96
318 321 16 57 78 80 55 37 18 321 286 279 281 291 310 308 305 296 290 268 269 313 279 45 64 67 65 67 77 87 87 85 82 78 75 75 75 73
50 13 354 18 30 78 92 90 60 42 21 322 315 325 324 321 314 298 300 308 326 327 338 91 73 77 84 76 82 82 81 78 74 72 71 68 64 59
56 44 43 31 27 46 98 88 72 53 47 57 55 31 17 358 328 317 293 144 119 38 356 28 58 62 83 90 94 90 87 84 80 75 71 67 78 80
61 46 49 61 36 62 107 103 93 85 76 75 70 67 58 45 30 28 29 15 48 58 21 4 349 10 83 106 113 121 115 106 97 94 88 39 307 251
83 68 55 54 49 55 100 102 97 87 86 82 74 66 61 56 51 40 29 34 38 47 25 357 352 318 273 95 78 103 115 130 140 141 138 98 323 295
82 73 63 62 62 56 65 77 74 79 87 83 76 67 60 54 49 47 41 40 43 46 17 343 338 329 316 351 10 20 23 23 33 146 159 163 227 318
83 83 79 77 72 64 68 67 67 72 83 79 71 64 56 50 48 50 52 52 53 55 27 2 353 343 324 331 354 3 6 358 348 341 349 157 197 199
83 82 86 91 96 81 72 65 68 75 76 75 70 60 54 50 52 63 71 80 80 66 51 24 4 355 332 341 357 357 346 357 356 345 339 336 336 330
99 106 105 89 89 87 89 77 69 66 69 76 72 64 58 53 47 42 43 46 57 69 65 42 25 5 359 10 356 357 355 350 351 352 343 336 338 358
104 99 91 87 83 80 76 71 68 69 65 62 63 59 53 51 48 41 28 28 37 36 44 46 39 36 29 355 357 5 356 349 353 355 324 326 345 353
92 89 82 77 75 75 74 72 65 57 53 53 53 49 46 45 42 36 26 23 26 26 25 18 6 355 80 87 24 353 348 347 345 338 324 328 335 348
86 82 78 75 73 71 68 64 60 56 45 48 47 43 39 40 40 33 27 23 24 25 24 15 4 349 343 10 72 27 349 340 334 337 338 331 325 337
78 78 77 74 70 66 64 62 60 57 50 45 43 38 34 32 32 30 31 20 15 15 19 20 16 3 353 348 345 354 16 342 344 340 335 327 321 309
79 77 75 75 73 69 64 61 59 54 46 40 44 36 30 28 24 22 31 27 353 9 8 20 20 317 306 315 320 349 15 133 313 322 329 324 325 318
82 82 78 74 70 68 68 64 64 60 52 45 43 35 29 22 21 14 11 5 5 4 358 4 360 333 335 337 335 340 345 334 254 228 252 291 327 328
82 81 83 79 72 63 60 62 57 54 49 41 38 29 21 13 3 3 0 356 359 357 347 348 348 342 340 334 331 333 335 328 325 314 280 205 219 246
Height
1569 1570 1570 1571 1572 1572 1573 1573 1574 1572 1572 1572 1572 1572 1572 1571 1571 1571 1570 1570 1570 1570 1570 1570 1570 1571 1571 1571 1571 1571 1571 1571 1572 1572 1572 1572 1572 1572
1566 1566 1567 1568 1568 1568 1569 1569 1569 1569 1568 1568 1568 1568 1568 1568 1567 1567 1567 1566 1566 1566 1566 1566 1566 1566 1566 1566 1567 1567 1567 1567 1567 1567 1567 1567 1567 1567
1562 1563 1563 1563 1564 1565 1565 1565 1565 1565 1564 1564 1565 1564 1564 1564 1563 1563 1563 1563 1562 1562 1561 1561 1562 1562 1562 1562 1562 1562 1562 1562 1562 1562 1562 1562 1562 1562
1559 1559 1560 1560 1559 1560 1560 1560 1560 1560 1561 1560 1560 1561 1560 1560 1559 1559 1559 1559 1559 1557 1557 1557 1557 1557 1557 1557 1557 1557 1557 1557 1557 1557 1557 1557 1557 1557
1556 1556 1556 1556 1555 1555 1555 1556 1556 1556 1556 1556 1556 1556 1557 1556 1556 1555 1555 1555 1555 1554 1553 1552 1552 1552 1552 1552 1552 1552 1552 1552 1552 1552 1552 1552 1552 1552
1552 1552 1552 1552 1552 1551 1551 1551 1552 1552 1552 1552 1552 1553 1553 1553 1552 1552 1552 1552 1551 1551 1550 1549 1548 1548 1548 1548 1548 1548 1547 1547 1547 1548 1548 1548 1547 1547
1549 1549 1549 1549 1548 1548 1548 1548 1548 1548 1549 1549 1549 1549 1549 1549 1549 1549 1549 1548 1547 1547 1547 1546 1546 1545 1544 1544 1543 1543 1543 1543 1543 1543 1543 1543 1543 1542
1547 1547 1547 1546 1546 1546 1546 1546 1546 1546 1546 1547 1546 1546 1546 1546 1546 1546 1545 1545 1544 1544 1544 1544 1543 1542 1541 1540 1540 1540 1540 1540 1540 1540 1539 1539 1539 1538
1545 1545 1545 1545 1544 1544 1544 1544 1544 1544 1544 1544 1544 1544 1544 1544 1543 1543 1542 1542 1541 1541 1542 1541 1541 1540 1539 1538 1538 1537 1537 1537 1537 1536 1536 1536 1535 1534
1543 1543 1543 1542 1542 1542 1543 1542 1542 1542 1542 1542 1542 1541 1541 1541 1540 1541 1540 1539 1539 1539 1539 1539 1539 1539 1538 1537 1536 1536 1536 1535 1534 1534 1534 1533 1533 1532
1542 1541 1542 1541 1541 1541 1541 1541 1541 1541 1541 1540 1540 1539 1539 1538 1538 1538 1538 1538 1537 1537 1537 1537 1537 1537 1537 1536 1535 1535 1534 1533 1532 1532 1531 1531 1530 1529
1541 1541 1540 1540 1540 1540 1540 1540 1540 1541 1541 1540 1539 1539 1538 1537 1536 1536 1536 1536 1536 1536 1535 1536 1536 1536 1536 1536 1535 1534 1533 1532 1531 1530 1529 1529 1528 1528
1540 1540 1540 1540 1540 1540 1540 1540 1540 1541 1540 1540 1539 1538 1538 1537 1536 1536 1535 1535 1536 1535 1535 1535 1535 1535 1535 1535 1534 1534 1533 1532 1531 1529 1528 1527 1526 1525
1540 1540 1540 1541 1541 1540 1540 1540 1541 1541 1541 1540 1540 1539 1538 1538 1537 1536 1535 1535 1535 1535 1534 1534 1534 1534 1534 1534 1534 1533 1532 1531 1530 1529 1528 1526 1525 1523
1540 1540 1541 1541 1541 1541 1541 1541 1541 1542 1541 1541 1540 1540 1540 1539 1538 1538 1537 1536 1536 1535 1535 1534 1534 1534 1534 1534 1533 1532 1532 1531 1529 1528 1527 1526 1524 1523
1541 1541 1542 1542 1542 1542 1542 1543 1543 1543 1543 1542 1542 1542 1542 1541 1541 1540 1540 1539 1538 1537 1536 1535 1534 1534 1534 1533 1533 1532 1531 1530 1529 1527 1526 1524 1523 1521
1543 1544 1544 1545 1545 1545 1545 1545 1545 1545 1545 1545 1545 1544 1544 1543 1543 1542 1541 1540 1540 1539 1538 1536 1535 1534 1533 1533 1533 1532 1531 1529 1528 1526 1524 1523 1522 1521
1545 1546 1546 1547 1547 1547 1547 1547 1547 1547 1547 1547 1546 1546 1545 1545 1544 1543 1542 1541 1541 1540 1539 1537 1536 1535 1534 1532 1532 1531 1530 1529 1527 1525 1523 1522 1521 1519
1548 1548 1549 1549 1549 1550 1549 1549 1549 1549 1548 1549 1548 1548 1547 1547 1546 1545 1544 1543 1542 1540 1539 1538 1536 1535 1534 1533 1531 1530 1529 1528 1526 1525 1523 1521 1519 1518
1551 1551 1551 1551 1552 1552 1552 1552 1552 1551 1551 1551 1550 1550 1549 1548 1547 1546 1545 1544 1543 1541 1540 1539 1537 1536 1535 1534 1532 1530 1528 1527 1525 1524 1522 1520 1518 1516
1554 1554 1554 1554 1554 1554 1554 1554 1554 1554 1553 1553 1552 1551 1550 1550 1549 1548 1546 1545 1544 1543 1541 1540 1538 1535 1534 1533 1532 1530 1528 1526 1524 1522 1520 1519 1517 1514
1556 1556 1557 1557 1557 1557 1556 1556 1556 1555 1555 1554 1554 1553 1552 1551 1550 1549 1548 1546 1545 1544 1542 1541 1538 1537 1536 1534 1532 1530 1528 1526 1523 1520 1519 1517 1516 1513
1559 1559 1559 1559 1559 1558 1558 1558 1557 1557 1556 1556 1555 1554 1553 1552 1551 1550 1549 1547 1546 1544 1542 1541 1539 1537 1535 1534 1532 1529 1527 1525 1523 1521 1519 1516 1514 1511